Wind_Speed
18 19 19 20 20 20 19 21 22 22 22 20 19 17 16 15 13 11 9 9 8 7 6 5 4 3 2 1 2 2 3 3 5 3 3 5 5 5 6 5 5 5 6
19 19 20 20 20 21 21 22 23 22 21 20 19 18 17 15 14 13 11 10 10 8 7 6 5 4 4 4 4 4 4 3 3 8 5 5 7 7 7 6 6 8 8
19 19 19 20 21 22 23 24 24 23 23 22 20 19 18 17 15 14 12 13 11 9 10 9 9 8 6 6 5 6 6 5 4 6 6 5 6 7 7 7 6 7 9
20 20 21 22 23 23 24 24 24 24 24 22 20 19 19 18 16 15 15 13 12 12 13 13 10 9 9 8 7 7 7 5 4 6 7 7 6 8 8 6 6 6 8
21 22 23 23 23 23 24 25 25 24 23 21 21 21 20 18 19 17 18 16 16 16 13 13 11 11 12 11 9 8 7 6 6 7 9 8 8 6 6 5 7 8 7
24 23 22 23 24 24 25 25 25 24 24 22 23 22 22 24 24 22 20 19 17 17 14 13 12 13 13 12 11 11 11 8 9 9 10 11 10 7 8 7 6 5 3
25 24 25 26 26 26 26 26 27 26 23 23 24 25 26 25 25 24 22 21 19 18 17 15 13 14 13 10 10 10 10 11 12 10 12 11 9 11 9 8 8 6 6
27 26 28 28 28 28 27 28 27 25 25 25 26 27 28 28 26 25 22 21 21 20 19 17 16 16 17 16 14 13 12 13 12 13 14 13 14 11 10 9 8 9 12
30 30 31 30 30 29 30 31 28 27 27 29 28 27 30 29 26 26 23 24 23 22 20 19 19 19 20 20 19 17 15 15 14 14 14 14 14 14 12 9 6 5 6
32 32 31 31 31 33 33 31 29 29 29 26 28 29 29 30 28 27 25 26 26 24 22 22 23 23 22 21 21 20 19 18 15 13 9 8 9 8 10 10 8 6 6
30 30 30 31 32 31 30 29 29 29 28 27 29 29 30 29 29 26 27 29 30 27 26 27 26 24 24 23 22 25 22 18 15 16 16 16 16 16 16 14 12 10 8
26 28 29 30 30 29 28 28 29 27 26 29 28 28 30 28 27 28 28 30 31 31 31 29 27 24 23 22 22 23 22 18 18 16 16 17 17 18 18 18 16 15 15
22 24 24 25 25 25 26 25 22 21 24 26 25 24 23 24 23 25 28 29 30 32 32 31 28 21 20 21 23 20 20 23 23 19 18 18 18 17 17 18 18 18 19
18 17 16 16 16 17 17 18 20 21 19 21 22 21 21 20 19 19 21 25 29 29 29 30 29 23 21 21 22 23 24 31 29 25 19 17 18 18 19 18 16 15 16
14 12 10 8 10 11 12 13 15 16 18 19 20 19 18 18 17 14 15 19 23 26 22 23 21 19 20 21 20 21 24 29 31 27 22 19 19 18 19 18 18 15 15
14 11 10 10 9 9 8 8 10 11 13 14 14 15 15 15 15 14 13 13 15 14 14 18 19 20 21 20 22 22 25 30 32 28 25 23 21 20 19 18 18 17 15
13 12 9 7 8 7 7 7 6 7 7 8 10 10 11 14 13 11 10 10 10 12 18 16 20 19 21 22 23 25 25 30 33 31 28 26 25 21 21 18 18 17 17
10 9 7 5 4 4 4 4 5 5 6 6 6 6 9 11 12 13 13 13 14 16 19 18 19 22 22 24 24 25 25 22 27 31 30 28 28 26 21 21 20 19 17
11 9 7 6 5 3 3 3 3 5 5 7 8 6 6 7 10 12 12 15 16 18 19 20 21 22 24 25 26 24 24 24 27 28 28 29 29 28 26 23 21 23 22
10 11 9 6 5 4 2 1 2 3 4 5 5 7 5 4 4 6 6 9 12 16 16 21 23 23 25 23 24 23 23 23 25 29 29 28 28 29 30 27 27 21 24
9 8 7 5 4 3 4 4 2 3 3 4 4 4 4 8 5 7 9 9 11 12 14 15 16 19 22 23 24 22 25 25 26 29 29 30 29 29 31 27 24 27 25
8 7 5 4 5 3 3 4 1 2 2 3 4 3 5 9 9 11 12 12 12 13 14 16 19 20 20 22 24 25 26 28 28 29 31 31 31 30 28 27 26 23 22
5 5 5 4 5 4 4 2 1 3 3 4 7 9 10 10 10 11 12 13 14 15 16 17 18 20 20 23 24 25 27 29 30 29 29 30 31 30 30 28 26 26 23
3 4 4 3 5 3 1 1 3 4 5 6 6 8 10 11 11 13 14 15 16 17 17 18 19 21 22 22 24 25 27 28 28 29 28 29 29 29 29 27 25 29 27
3 4 4 4 3 1 2 4 4 4 4 6 7 8 10 11 12 13 14 15 16 17 17 18 18 20 21 22 23 24 26 26 26 27 28 28 29 30 31 30 26 23 22
5 5 5 4 3 4 5 3 4 4 5 7 8 9 11 12 13 14 15 16 17 19 19 20 20 20 21 22 22 23 23 24 25 26 26 28 28 29 30 30 27 23 21
Wind_Direction
182 186 189 192 193 193 191 189 188 187 183 179 181 180 182 184 185 185 189 184 188 197 189 186 200 193 187 245 284 274 245 234 263 274 272 264 263 258 281 299 317 310 301
188 190 191 192 192 191 189 190 189 186 184 185 187 187 191 193 193 195 195 205 203 203 205 207 215 212 208 222 235 246 254 250 265 280 260 253 253 259 267 280 294 295 297
187 186 187 190 189 188 190 191 188 186 189 191 192 195 199 201 202 204 209 214 210 214 221 219 222 220 225 225 219 220 235 240 239 253 262 243 255 268 270 278 279 287 295
188 185 188 190 191 193 194 192 191 191 195 195 199 202 207 209 209 212 215 215 218 223 227 227 228 232 233 230 226 227 228 224 231 245 250 249 244 260 271 278 289 290 301
188 190 194 193 193 194 195 193 194 196 199 200 204 209 213 215 220 217 219 219 223 227 229 232 237 243 241 234 228 230 226 216 222 233 245 247 241 242 256 271 295 302 301
193 194 192 192 194 195 195 195 196 199 203 206 210 216 219 222 224 223 224 223 225 229 231 234 239 245 242 241 242 239 233 220 225 229 246 244 244 235 253 266 288 311 298
195 196 194 194 195 196 197 197 201 204 207 213 219 222 227 231 232 229 228 229 232 233 235 234 238 241 237 232 231 230 245 245 235 237 247 247 251 249 242 256 265 274 273
197 198 199 199 200 199 199 203 207 209 215 220 225 229 234 235 236 237 236 234 238 238 239 241 238 241 238 237 233 240 247 252 252 248 245 249 250 252 242 247 257 277 293
200 202 203 202 202 202 204 208 210 215 220 226 233 236 240 243 241 242 237 237 239 241 243 245 243 242 244 241 237 240 247 251 253 253 247 247 246 246 243 247 262 279 285
203 206 206 205 206 207 210 212 216 223 231 235 242 244 247 251 250 246 239 240 244 243 246 248 249 246 247 240 236 240 242 248 243 241 236 221 221 235 228 239 251 250 270
206 209 209 210 211 214 217 219 225 230 236 243 247 252 254 255 256 251 244 239 248 251 251 251 253 252 249 242 230 246 247 256 245 239 235 236 239 239 248 255 254 250 248
207 209 210 213 214 217 220 223 231 234 240 246 253 257 259 258 257 255 248 242 249 249 254 260 261 260 252 240 232 239 248 244 243 236 237 237 240 244 248 252 255 256 256
195 202 207 212 216 222 224 228 235 241 245 251 254 260 265 270 267 260 251 246 243 244 254 261 266 266 257 244 235 235 234 225 240 237 238 242 243 246 244 247 253 258 263
178 191 199 207 209 220 227 233 239 241 242 248 255 260 267 271 272 266 257 250 245 241 247 258 261 260 253 255 239 231 235 228 235 241 244 251 245 242 241 243 247 255 265
155 158 166 175 198 206 218 227 235 245 249 253 260 264 264 265 273 276 268 259 256 253 240 248 246 233 232 231 227 228 231 230 232 239 241 241 241 239 239 241 244 245 249
143 145 152 163 178 191 201 225 237 247 252 255 258 261 267 269 275 276 271 260 252 242 230 235 238 235 237 231 226 225 228 235 238 239 241 240 236 235 237 239 241 242 249
141 139 144 160 180 186 200 217 244 267 272 270 262 262 260 272 286 278 265 258 249 239 235 240 240 240 237 236 234 234 234 244 250 243 241 240 238 234 231 232 238 238 245
127 135 146 175 193 205 213 239 250 262 268 269 266 266 267 263 270 264 264 265 253 246 245 247 249 244 242 236 238 238 240 238 247 247 243 240 240 235 229 232 232 232 240
134 135 145 154 160 178 200 221 251 262 282 288 305 298 280 270 267 262 256 258 261 258 246 245 253 250 251 246 250 244 244 240 245 251 248 243 240 237 233 233 234 235 239
127 134 140 138 131 157 142 82 315 298 289 308 323 308 314 323 323 309 290 274 278 278 284 259 256 255 263 259 261 253 250 247 245 253 251 249 244 242 238 235 234 229 238
123 111 104 116 123 115 102 78 331 323 329 340 342 321 336 296 298 297 294 290 288 288 291 292 285 268 269 270 268 260 258 254 254 258 256 254 250 243 246 238 236 241 238
107 113 123 106 84 51 71 79 359 308 328 340 302 307 294 286 291 291 293 295 294 292 290 290 286 282 277 278 280 273 266 265 263 264 262 259 254 249 244 240 236 234 237
122 109 97 86 80 63 43 17 279 274 302 304 306 319 311 307 313 309 308 308 305 302 300 296 293 290 287 285 285 280 275 274 279 276 269 264 257 249 244 238 234 233 230
104 101 95 81 72 57 26 343 311 330 328 322 333 327 314 317 319 317 318 317 315 312 309 307 303 298 295 290 287 285 284 284 282 279 276 268 262 255 244 238 234 238 235
105 100 96 86 91 140 45 18 339 346 341 340 344 333 323 326 327 329 328 325 323 321 319 317 313 310 304 300 296 292 290 289 285 282 277 270 264 257 249 241 236 235 233
94 89 95 107 93 69 57 23 349 349 4 357 356 343 335 334 336 333 331 329 327 325 324 323 321 318 314 309 305 302 298 295 291 285 280 272 263 255 248 241 237 230 230
Height
811 815 819 823 827 830 834 838 840 844 846 849 851 853 855 856 857 859 862 860 861 864 863 863 864 863 863 865 866 866 867 866 864 865 865 865 865 863 864 860 857 858 859
807 811 815 820 824 827 832 835 838 843 846 847 849 851 853 855 855 856 856 861 859 860 861 861 862 862 859 859 861 865 867 865 863 863 863 863 863 862 861 858 856 855 855
804 808 813 817 821 824 828 832 835 839 843 844 846 848 851 853 854 855 856 857 857 858 858 856 856 856 857 857 857 858 862 860 860 861 860 861 862 861 859 856 854 853 852
803 805 809 812 816 822 826 829 833 836 839 841 844 846 848 849 850 851 853 855 854 855 853 853 854 854 855 857 856 857 857 857 858 858 858 858 858 858 858 855 853 851 849
799 802 806 809 814 819 823 827 831 833 838 839 841 844 846 848 849 849 850 849 850 851 852 852 853 852 854 855 853 855 855 853 854 855 856 856 855 855 855 854 852 850 848
794 798 802 806 811 816 821 825 829 832 834 835 836 841 842 841 841 842 845 845 846 848 849 849 848 849 849 849 852 852 851 850 849 851 853 852 852 850 851 851 850 850 848
789 793 798 803 807 812 818 822 825 828 830 833 835 835 838 838 840 839 841 841 842 844 846 845 846 848 850 848 848 849 849 848 846 848 849 849 849 848 847 847 847 847 846
784 790 794 798 804 809 814 818 822 824 825 828 830 830 833 833 835 839 838 839 841 840 841 842 840 843 844 846 847 846 845 845 844 843 844 845 845 845 845 844 844 843 842
780 785 790 796 800 805 808 812 817 818 818 821 826 827 830 831 833 835 836 835 836 837 836 838 837 838 840 841 841 842 841 841 840 840 841 841 841 841 841 842 841 841 839
775 780 786 791 796 799 803 806 809 811 815 817 822 822 824 827 828 830 832 831 830 831 830 831 832 832 833 836 837 837 837 838 837 837 838 838 838 838 838 838 838 838 838
771 778 783 787 790 794 798 803 806 809 811 814 816 816 819 821 823 825 826 827 826 827 825 823 825 828 829 830 832 831 833 835 834 834 835 835 835 835 835 835 835 834 834
769 775 778 782 786 791 793 795 801 803 805 810 811 812 813 813 814 817 818 819 821 820 817 818 817 821 823 824 826 827 829 831 831 831 830 830 830 830 830 830 830 829 828
766 771 775 779 782 787 790 792 799 800 806 807 806 806 806 806 806 808 810 811 813 812 812 812 812 816 818 818 820 822 824 825 824 825 824 823 824 825 825 825 825 824 822
763 770 774 777 778 784 787 789 796 799 800 801 802 799 800 800 800 801 801 802 805 807 806 806 808 810 812 812 813 815 817 816 816 817 818 818 819 818 819 820 819 819 817
764 768 773 773 779 780 785 789 791 793 796 795 794 796 795 793 794 795 795 795 797 800 803 802 802 803 804 805 806 807 809 809 809 810 811 811 812 813 813 814 813 813 812
765 769 771 774 778 781 781 785 787 789 790 791 791 790 790 790 789 789 790 791 792 794 796 796 796 797 798 799 798 799 800 800 801 803 803 804 805 806 807 808 808 808 807
767 769 771 775 777 777 779 781 784 784 786 788 788 788 787 786 786 787 788 789 790 791 790 791 791 792 792 793 792 792 791 791 793 794 795 796 797 799 800 801 800 800 799
764 768 770 776 778 779 778 780 781 781 784 785 784 782 783 783 786 787 787 786 785 785 785 786 785 785 785 784 784 783 784 785 785 785 786 787 788 789 791 791 791 792 793
765 768 772 774 775 778 779 779 778 781 781 781 780 780 780 779 782 783 783 782 780 780 779 779 779 778 777 777 776 776 776 776 776 777 777 778 779 780 780 782 783 783 784
767 766 770 774 774 777 777 776 779 781 780 779 778 781 780 779 779 779 779 778 777 775 774 773 772 771 770 769 769 768 768 768 768 768 768 768 769 769 770 771 772 774 773
769 770 771 776 778 777 772 772 780 781 781 780 780 782 781 781 777 777 777 775 773 772 771 769 768 766 765 764 763 762 761 760 760 759 759 759 760 760 760 762 763 764 766
768 771 774 775 773 778 775 772 779 782 779 777 781 779 779 780 774 774 773 770 769 768 766 765 763 762 760 758 757 755 753 752 752 751 750 749 749 750 751 752 754 755 757
773 771 772 773 772 775 775 778 779 780 777 777 777 775 777 776 772 771 769 766 765 763 761 759 757 755 753 751 750 749 747 745 744 743 741 741 740 740 741 741 742 745 747
772 770 771 772 770 774 778 778 780 777 776 775 772 772 775 772 769 767 764 762 760 758 756 754 752 749 747 745 743 741 739 738 737 736 735 734 733 732 732 733 734 735 737
774 771 771 771 773 778 777 776 778 775 774 773 771 771 772 770 767 763 761 759 757 754 752 750 747 744 741 739 737 735 733 731 729 728 726 725 724 724 724 724 725 728 732
771 771 772 774 776 774 773 777 778 776 772 771 769 769 769 767 763 761 759 756 754 751 748 745 743 740 737 734 732 729 726 724 721 720 719 717 716 716 716 716 718 720 724